SCP
0 0 0 0 0 0 0 0 0 0 0 0 0 0 0 0 0 0 0 0 0 0 0 0 0 0 0 0 0 0 0 0 0 0 0 0 0 0 0 0 0 0 0
0 0 0 0 0 0 0 0 0 0 0 0 0 0 0 0 0 0 0 0 0 0 0 0 0 0 0 0 0 0 0 0 0 0 0 0 0 0 0 0 0 0 0
0 0 0 0 0 0 0 0 0 0 0 0 0 0 0 0 0 0 0 0 0 0 0 0 0 0 0 0 0 0 0 0 0 0 0 0 0 0 0 0 0 0 0
0 0 0 0 0 0 0 0 0 0 0 0 0 0 0 0 0 0 0 0 0 0 0 0 0 0 0 0 0 0 0 0 0 0 0 0 0 0 0 0 0 0 0
0 0 0 0 0 0 0 0 0 0 0 0 0 0 0 0 0 0 0 0 0 0 0 0 0 0 0 0 0 0 0 0 0 0 0 0 0 0 0 0 0 0 0
0 0 0 0 0 0 0 0 0 0 0 0 0 0 0 0 0 0 0 0 0 0 0 0 0 0 0 0 0 0 0 0 0 0 0 0 0 0 0 0 0 0 0
0 0 0 0 0 0 0 0 0 0 0 0 0 0 0 0 0 0 0 0 0 0 0 0 0 0 0 0 0 0 0 0 0 0 0 0 0 0 0 0 0 0 0
0 0 0 0 0 0 0 0 0 0 0 0 0 0 0 0 0 0 0 0 0 0 0 0 0 0 0 0 0 0 0 0 0 0 0 0 0 0 0 0 0 0 0
0 0 0 0 0 0 0 0 0 0 0 0 0 0 0 0 0 0 0 0 0 0 0 0 0 0 0 0 0 0 0 0 0 0 0 0 0 0 0 0 0 0 0
1 0 0 0 0 0 0 0 0 0 0 0 0 0 0 0 0 0 0 0 0 0 0 0 0 0 0 0 0 0 0 0 0 0 0 0 0 0 0 0 0 0 0
1 0 0 0 0 0 0 0 0 0 0 0 0 0 0 0 0 0 0 0 0 0 0 0 0 0 0 0 0 0 0 0 0 0 0 0 0 0 0 0 0 0 0
1 1 0 0 1 0 0 0 0 0 0 0 0 0 0 0 0 0 0 0 0 0 0 0 0 0 0 0 0 0 0 0 0 0 0 0 0 0 0 0 0 0 0
1 1 1 1 1 1 1 1 1 1 1 1 0 0 0 0 0 0 0 0 0 0 0 0 0 0 0 0 0 0 0 0 0 0 0 0 0 0 0 0 0 0 0
1 1 1 1 1 1 1 1 1 1 1 1 1 1 0 0 0 0 0 0 0 0 0 0 0 0 0 0 0 0 0 0 0 0 0 0 0 0 0 0 0 0 0
1 1 1 1 1 1 1 1 1 1 1 1 1 1 1 0 0 0 0 0 0 0 0 0 0 0 0 0 0 0 0 0 0 0 0 0 0 0 0 0 0 0 0
1 1 1 1 1 1 1 1 1 1 1 1 1 1 1 1 1 1 0 0 0 0 0 0 0 0 0 0 0 0 0 0 0 0 0 0 0 0 0 0 0 0 0
1 1 1 1 1 1 1 1 1 1 1 1 1 1 1 1 1 1 1 1 0 0 0 0 0 0 0 0 0 0 0 0 0 0 0 0 0 0 0 0 0 0 0
1 1 1 1 1 1 1 1 1 1 1 1 1 1 1 1 1 1 1 1 1 0 0 0 0 0 0 0 0 0 0 0 0 0 0 0 0 0 0 0 0 0 0
1 1 1 1 1 1 1 1 1 1 1 1 1 1 1 1 1 1 1 1 0 0 0 0 0 0 0 0 0 0 0 0 0 0 0 0 0 0 0 0 0 0 0
1 1 1 1 1 1 1 1 1 1 1 1 1 1 1 1 1 1 0 0 0 0 0 0 0 0 0 0 0 0 0 0 0 0 0 0 0 0 0 0 0 0 0
1 1 1 1 1 1 1 1 1 1 1 1 1 1 0 0 0 0 0 0 0 0 0 0 0 0 0 0 0 0 0 0 0 0 0 0 0 0 0 0 0 0 0
1 1 1 1 1 1 0 0 0 1 1 1 1 0 0 0 0 0 0 0 0 0 0 0 0 0 0 0 0 0 0 0 0 0 0 0 0 0 0 0 0 0 0
1 1 1 1 1 1 0 0 0 0 0 1 1 0 0 0 0 0 0 0 0 0 0 0 0 0 0 0 0 0 0 0 0 0 0 0 0 0 0 0 0 0 0
1 1 1 1 1 1 0 0 0 0 0 0 0 0 0 0 0 0 0 0 0 0 0 0 0 0 0 0 0 0 0 0 0 0 0 0 0 0 0 0 0 0 0
1 1 1 1 1 1 0 0 0 0 0 0 0 0 0 0 0 0 0 0 0 0 0 0 0 0 0 0 0 0 0 0 0 0 0 0 0 0 0 0 0 0 0
1 1 1 1 1 1 0 0 0 0 0 0 0 0 0 0 0 0 0 0 0 0 0 0 0 0 0 0 0 0 0 0 0 0 0 0 0 0 0 0 0 0 0
Wind_Speed
3 3 2 1 1 2 2 1 1 2 2 2 1 3 3 4 6 7 6 11 11 10 10 10 9 9 9 9 8 8 8 8 8 8 8 8 8 8 7 7 6 6 6
3 3 2 1 1 2 2 1 2 2 1 1 2 2 2 3 4 7 7 8 10 10 10 10 9 9 9 9 8 8 8 8 8 7 7 7 7 7 7 7 6 6 6
3 2 2 1 2 2 2 1 1 1 2 1 1 1 1 2 3 5 6 6 6 9 10 10 10 9 9 9 9 8 8 8 8 8 7 7 7 7 6 6 6 6 6
2 1 1 2 2 2 2 1 1 1 1 1 1 0 1 2 2 3 4 6 6 6 9 11 10 10 10 10 10 10 10 9 9 8 8 7 7 7 7 7 6 6 6
3 2 1 1 2 1 1 1 2 1 1 1 1 1 1 1 2 3 3 4 5 6 6 9 11 11 11 11 11 11 11 10 10 9 9 9 8 8 8 7 7 6 6
3 2 2 2 2 1 1 1 2 1 0 1 1 1 2 2 2 2 3 3 4 6 7 8 7 8 12 11 11 12 12 12 11 11 11 10 10 9 8 8 8 7 7
4 2 2 2 2 1 2 2 2 2 1 1 0 0 1 2 3 2 2 3 4 5 6 8 7 6 6 12 12 11 12 12 12 12 12 11 11 10 10 9 9 8 8
4 5 3 3 3 2 2 2 1 1 1 1 1 0 0 1 1 3 3 4 4 4 5 8 7 6 6 5 8 13 13 13 12 13 12 12 11 11 11 11 10 10 9
5 4 4 3 3 3 3 3 3 3 2 1 1 1 1 1 1 1 2 2 3 3 4 4 6 6 6 5 7 11 13 12 12 13 13 12 12 12 12 12 12 11 11
5 5 5 4 3 3 3 4 4 2 2 2 1 1 2 1 1 1 1 1 2 2 3 4 5 6 6 5 7 11 13 13 13 13 12 12 12 12 12 12 13 12 12
5 5 5 5 4 3 4 4 3 3 2 3 2 1 2 2 2 2 2 2 1 2 3 3 2 3 5 6 5 9 13 13 13 12 12 12 12 13 13 13 13 13 13
5 6 6 5 5 4 4 4 3 4 3 2 2 2 1 1 2 2 2 2 2 2 2 2 3 3 3 5 7 10 12 12 12 11 11 11 11 12 12 12 13 13 14
4 6 6 5 5 5 5 4 4 4 4 3 3 3 2 2 2 2 2 2 2 1 2 2 2 3 3 3 5 11 11 12 12 11 10 10 10 10 11 11 12 13 13
4 5 6 6 6 5 6 5 4 4 4 4 5 4 2 2 2 2 2 2 2 2 2 3 2 3 2 2 5 9 7 11 11 11 10 10 10 10 10 10 11 11 10
4 4 5 5 5 5 5 4 4 4 4 4 4 4 3 3 3 2 2 2 2 3 3 3 2 2 2 2 5 5 5 10 11 11 10 10 9 9 9 9 9 9 9
3 3 4 4 4 5 5 5 4 4 4 4 3 3 3 3 3 3 3 3 3 3 3 2 2 1 1 3 6 5 5 10 12 12 11 11 10 9 9 9 9 9 9
4 4 4 4 4 4 4 4 5 5 5 4 4 4 5 4 3 3 3 2 2 2 3 3 1 1 1 1 2 3 3 5 6 12 12 11 11 10 9 9 9 9 9
4 4 4 4 4 4 4 5 5 5 5 4 4 4 4 4 4 3 3 3 2 2 3 4 2 2 2 2 3 3 3 4 4 9 12 12 11 11 10 10 10 9 9
4 4 3 4 3 3 3 4 5 4 4 4 3 4 4 3 3 3 3 3 2 3 2 3 3 2 2 2 2 2 3 2 4 4 9 10 11 11 10 10 9 9 9
4 4 3 3 3 2 3 3 4 4 3 3 2 2 2 2 2 2 2 2 2 2 2 2 2 2 1 1 1 2 2 2 3 3 3 5 8 10 9 9 9 9 9
4 3 3 2 2 1 2 2 2 3 2 1 1 1 0 2 2 2 1 1 2 2 2 1 1 1 1 1 1 2 2 1 2 2 1 1 3 3 4 6 7 7 7
3 3 3 2 2 1 0 1 1 1 1 1 0 0 1 3 3 4 4 5 4 2 2 1 1 2 1 1 1 2 2 2 2 1 1 2 1 1 2 2 3 5 6
3 2 2 2 2 2 3 3 2 1 1 1 1 2 1 2 2 3 3 4 4 4 3 2 2 3 3 3 3 2 2 2 2 2 1 3 2 2 1 0 2 3 3
3 2 3 2 3 3 3 3 3 2 2 3 3 3 3 3 3 2 2 3 4 5 4 3 2 3 3 4 3 2 2 2 2 2 1 2 3 2 2 1 1 2 3
3 3 3 3 3 3 2 2 3 2 3 4 4 4 3 3 4 3 2 3 3 3 4 5 4 4 5 7 5 3 2 1 2 2 2 2 3 3 2 0 0 1 2
3 3 4 4 4 4 3 3 3 3 3 3 4 4 6 4 4 4 3 3 3 2 2 3 3 3 3 4 5 3 3 2 2 2 2 2 2 2 2 1 0 0 0
Wind_Direction
101 104 92 114 132 128 137 100 81 82 82 69 62 79 75 100 117 125 133 147 146 150 152 153 153 151 151 151 150 153 153 152 152 153 155 156 155 154 154 152 151 147 147
104 114 110 84 84 87 77 84 105 104 90 80 55 63 72 85 114 125 141 150 155 158 160 162 165 165 163 161 162 164 165 164 162 162 164 164 165 164 165 164 162 159 156
119 130 128 134 110 107 105 94 82 114 141 124 101 95 89 92 105 128 147 153 162 170 171 174 176 176 176 176 177 177 176 174 173 172 173 172 172 175 176 175 172 169 169
147 154 140 130 132 139 139 143 132 109 90 95 114 125 119 127 136 150 157 159 163 169 179 184 185 186 188 189 189 188 185 184 183 181 182 182 182 185 186 188 184 180 182
165 175 119 133 173 141 160 169 109 78 102 129 187 182 166 167 161 181 163 161 161 161 168 184 191 193 197 197 197 195 194 194 192 192 193 194 194 194 194 195 193 192 193
180 185 167 192 198 147 123 82 98 105 220 253 254 160 190 183 177 178 180 173 166 172 176 172 184 199 203 201 202 202 202 200 199 200 201 201 202 200 199 200 200 200 202
178 194 187 174 191 153 160 162 163 196 220 226 270 304 255 191 170 177 196 186 184 186 176 167 184 186 193 204 206 206 208 206 205 205 205 206 207 205 204 205 205 206 208
184 189 192 199 180 169 182 190 204 242 238 197 183 206 309 332 278 200 188 198 190 185 184 183 189 181 183 182 199 206 210 210 209 209 210 210 211 210 210 212 212 213 216
193 215 188 208 185 190 183 196 217 220 235 248 209 183 196 212 269 270 229 209 184 183 189 187 183 182 189 178 180 203 208 210 212 215 214 215 214 214 214 216 219 219 221
196 200 202 203 212 221 184 204 207 215 219 251 250 218 200 162 177 265 276 219 196 200 217 209 188 183 189 179 181 186 199 207 211 215 218 219 217 215 217 220 223 224 223
202 205 201 196 207 226 212 214 201 211 224 236 251 233 200 195 208 198 245 256 248 211 211 213 186 185 189 184 181 185 190 200 207 212 216 219 219 218 220 223 227 228 229
201 210 209 198 201 217 222 214 205 212 231 248 275 276 236 210 214 211 222 229 239 235 214 206 184 184 197 183 189 184 183 191 201 208 213 217 219 220 221 225 229 232 234
203 206 209 196 201 210 216 213 210 222 218 225 240 255 253 245 244 230 229 240 247 242 231 216 190 182 203 179 173 177 183 190 198 205 210 215 218 220 222 225 231 235 237
215 201 198 196 202 208 217 209 216 216 216 220 232 237 254 257 257 238 232 235 257 259 247 241 200 183 192 178 174 177 183 190 195 201 208 213 217 220 223 226 231 234 237
221 197 197 201 204 208 212 209 220 223 216 218 227 232 238 253 254 252 247 227 225 244 252 249 228 195 181 169 168 188 180 188 194 199 203 207 211 215 220 224 227 229 232
219 194 200 208 210 212 209 212 221 222 219 223 228 238 241 248 248 241 241 245 234 226 249 246 239 216 199 195 182 195 188 184 196 199 199 203 207 210 215 219 223 225 228
212 208 208 211 211 210 208 212 223 217 222 223 227 230 234 240 253 253 249 246 248 234 246 258 244 239 236 242 180 219 194 183 197 205 204 205 207 210 214 219 224 227 229
213 213 213 214 220 218 212 216 230 226 222 224 230 237 242 244 248 258 260 252 248 240 237 259 261 248 245 232 209 228 232 219 207 201 202 203 205 208 213 217 222 227 230
203 206 202 205 217 222 220 225 228 229 228 228 229 233 246 256 260 259 260 257 248 249 235 250 262 244 247 247 230 254 262 266 255 201 198 205 207 209 212 216 220 224 227
188 194 196 203 210 225 233 231 228 224 227 229 227 234 250 261 272 280 273 281 280 276 265 259 269 266 258 253 211 243 265 258 262 262 219 205 204 211 215 215 217 221 224
192 180 181 191 198 222 240 236 229 214 212 210 230 264 227 83 57 35 337 332 310 284 277 262 272 283 292 314 281 275 271 273 267 269 274 242 204 214 222 223 225 226 224
172 166 172 174 184 219 244 131 185 226 158 144 175 74 124 93 77 77 59 48 40 8 348 336 314 307 304 294 279 278 280 284 287 310 338 313 304 201 217 201 198 206 217
152 148 143 146 134 78 81 101 107 106 87 81 87 73 58 63 60 71 75 62 44 35 33 8 349 330 320 318 318 308 300 295 274 282 317 300 318 320 291 214 167 171 188
134 138 132 130 111 85 87 109 109 116 80 66 66 71 72 52 43 52 76 66 52 36 31 38 30 5 354 338 320 290 285 293 283 300 306 274 284 283 306 35 30 125 149
130 131 117 111 102 79 76 114 127 118 100 83 72 60 68 69 38 42 75 69 58 44 46 53 51 37 21 17 16 9 339 314 292 294 334 290 285 292 284 259 109 130 151
116 112 107 99 93 82 68 84 122 117 109 104 94 77 60 59 51 47 74 74 60 30 35 42 40 26 23 21 23 19 346 329 316 324 346 320 290 298 292 297 313 174 158